Location: The Saddle
(36.8333°N, 80.3417°W)
Time: 01:52:50
(UTC-05:00)

A-11 Canister half - Pass Details

Date: 14 December 2023
Orbit: 1526 x 1682 km, 47.3° (Epoch: 01 March)

Event Time Altitude Azimuth Distance (km) Brightness Sun altitude
Rises 17:44:50 0° 255° (WSW) 4,894 13.9 -7.8°
Reaches altitude 10° 17:48:03 10° 259° (W) 3,920 12.7 -8.4°
Maximum altitude 17:58:01 60° 338° (NNW) 1,877 9.5 -10.3°
Enters shadow 18:07:12 13° 57° (ENE) 3,682 10.4 -12.0°
